Time,TemperatureF,DewpointF,PressureIn,WindDirection,WindDirectionDegrees,WindSpeedMPH,WindSpeedGustMPH,Humidity,HourlyPrecipIn,Conditions,Clouds,dailyrainin,SoftwareType,DateUTC
2013-01-09 00:42:00,72.0,-99.9,-100.00,ENE,70,2.0,6.0,-999,-99.99,,,-99.99,,2013-01-09 05:42:00,
2013-01-09 00:43:00,72.0,-99.9,-100.00,ENE,70,3.0,7.0,-999,-99.99,,,-99.99,,2013-01-09 05:43:00,
2013-01-09 00:53:00,72.0,-99.9,-100.00,ENE,70,3.0,7.0,-999,-99.99,,,-99.99,,2013-01-09 05:53:00,
2013-01-09 01:53:00,72.0,-99.9,-100.00,ENE,70,2.0,5.0,-999,-99.99,,,-99.99,,2013-01-09 06:53:00,
2013-01-09 02:53:00,72.0,-99.9,-100.00,ENE,70,2.0,5.0,-999,-99.99,,,-99.99,,2013-01-09 07:53:00,
2013-01-09 03:53:00,71.0,-99.9,-100.00,ENE,70,2.0,5.0,-999,-99.99,,,-99.99,,2013-01-09 08:53:00,
2013-01-09 03:54:00,70.0,-99.9,-100.00,ENE,70,3.0,5.0,-999,-99.99,,,-99.99,,2013-01-09 08:54:00,
2013-01-09 05:53:00,71.0,-99.9,-100.00,ENE,70,3.0,7.0,-999,-99.99,,,-99.99,,2013-01-09 10:53:00,
2013-01-09 06:53:00,70.0,-99.9,-100.00,ENE,70,3.0,6.0,-999,-99.99,,,-99.99,,2013-01-09 11:53:00,
2013-01-09 07:53:00,70.0,-99.9,-100.00,East,90,2.0,6.0,-999,-99.99,,,-99.99,,2013-01-09 12:53:00,
2013-01-09 08:53:00,70.0,-99.9,-100.00,ENE,70,3.0,6.0,-999,-99.99,,,-99.99,,2013-01-09 13:53:00,
2013-01-09 09:53:00,72.0,-99.9,-100.00,ENE,70,3.0,6.0,-999,-99.99,,,-99.99,,2013-01-09 14:53:00,
2013-01-09 10:53:00,74.0,-99.9,-100.00,East,90,3.0,8.0,-999,-99.99,,,-99.99,,2013-01-09 15:53:00,
2013-01-09 11:53:00,77.0,-99.9,-100.00,East,80,5.0,7.0,-999,-99.99,,,-99.99,,2013-01-09 16:53:00,
2013-01-09 12:53:00,80.0,-99.9,-100.00,East,100,5.0,7.0,-999,-99.99,,,-99.99,,2013-01-09 17:53:00,
2013-01-09 13:53:00,80.0,-99.9,-100.00,East,100,6.0,7.0,-999,-99.99,,,-99.99,,2013-01-09 18:53:00,
2013-01-09 14:53:00,82.0,-99.9,-100.00,East,90,5.0,8.0,-999,-99.99,,,-99.99,,2013-01-09 19:53:00,
2013-01-09 15:53:00,84.0,-99.9,-100.00,East,90,3.0,7.0,-999,-99.99,,,-99.99,,2013-01-09 20:53:00,
2013-01-09 16:43:00,83.0,-99.9,-100.00,East,80,2.0,5.0,-999,-99.99,,,-99.99,,2013-01-09 21:43:00,
2013-01-09 16:53:00,83.0,-99.9,-100.00,East,80,2.0,5.0,-999,-99.99,,,-99.99,,2013-01-09 21:53:00,
2013-01-09 17:53:00,82.0,-99.9,-100.00,East,90,2.0,5.0,-999,-99.99,,,-99.99,,2013-01-09 22:53:00,
2013-01-09 18:53:00,80.0,-99.9,-100.00,North,0,0.0,2.0,-999,-99.99,,,-99.99,,2013-01-09 23:53:00,
2013-01-09 19:53:00,79.0,-99.9,-100.00,East,100,2.0,5.0,-999,-99.99,,,-99.99,,2013-01-10 00:53:00,
2013-01-09 20:53:00,77.0,-99.9,-100.00,East,90,3.0,6.0,-999,-99.99,,,-99.99,,2013-01-10 01:53:00,
2013-01-09 22:53:00,74.0,-99.9,-100.00,East,90,3.0,6.0,-999,-99.99,,,-99.99,,2013-01-10 03:53:00,
2013-01-09 23:43:00,73.0,-99.9,-100.00,East,90,2.0,5.0,-999,-99.99,,,-99.99,,2013-01-10 04:43:00,
2013-01-09 23:53:00,73.0,-99.9,-100.00,East,90,2.0,5.0,-999,-99.99,,,-99.99,,2013-01-10 04:53:00,